CZ-6A DEB, 55219

Orbit data source: Space-Track

CZ-6A DEB, 55219 is space debris in SSO originally from a launch on Fri, 11 Nov 2022 UTC launched from the Taiyaun Space Center, China (TSC). Debris objects in space refer to the collection of defunct objects orbiting the Earth. Examples of debris include non-operational satellites, rocket bodies, and fragments generated from explosions, collisions, or faulty payload assembly.

Loading next visibility...
Identifier
55219, 2022-151WL
Orbit
SSO
Country
Flag of CNCN / PRC
Related business
Manufacturer
SAST
Mission
Spacecraft
Bus & Motor
Unknown
Mass
Unknown
Launch date (UTC)
2022-11-11 (4 years ago)
Launch vehicle
Unknown
Launch site
Taiyaun Space Center, China (TSC)
Object type
Payload
Rocket body
Debris
Shape & HBR
Unknown shape, 0.1 m
Radar Cross Section
Medium (>0.1 m² and <1 m²)

Expand to show TLE details & history
Last TLE update: 2 days ago

TLE from 2 days ago
0 CZ-6A DEB
1 55219U 22151WL  26171.09345553  .00005318  00000-0  10060-2 0  9990
2 55219  98.6103 229.8931 0078167 289.6966  69.5813 14.62858970184937
Epoch: 2026-06-20T02:14Z
TLE epoch observation values (Epoch: 2026-06-20T02:14:34.557Z)
Latitude
-0.00009°
Longitude
-72.0639°
Altitude
668.052 km
Speed
7.533 km/s
True Right ascension
15h 19m 34s
True Declination
0° 00' 00"
Sunlit
Object was in full shadow at epoch
Visualization orbit readout
Latitude
Unknown
Longitude
Unknown
Altitude
Unknown
Speed
Unknown
Apparent Right ascension
Unknown
Apparent Declination
Unknown
Sunlit
N/A
Visualization observer readout
Local Sidereal Time
21:31:33
Azimuth
Unknown
Elevation
Unknown
Doppler factor
Unknown
Orbital elements
Apogee altitude
736.234 km
Perigee altitude
625.875 km
Semi-major axis
7,059.191 km
Eccentricity
0.00782
Inclination
98.6103°
RAAN
229.8931°
Arg. of periapsis
289.6966°
True anomaly
70.42359°
Mean anomaly
69.5813°
Eccentric anomaly
70.00216°
Mean motion
3.65941 °/min
Orbital period
98.38 mins
BSTAR
0.001006
Loading maneuver chart data...
Computing Atmospheric mass density...
Loading historical data...
Loading historical data...
Loading historical data...
Loading historical data...
Loading historical data...
Loading historical data...
Loading historical data...

Documentation

Showing up to 5 results
|